Location: Unspecified
(0.0000°N, 0.0000°E)
Time: 12:13:47
(UTC+00:00)

FALCON 9 DEB - Pass Details

Date: 12 December 2019
Orbit: 256 x 274 km, 53.0° (Epoch: 11 December)

Event Time Altitude Azimuth Distance (km) Brightness Sun altitude
Rises 18:55:02 0° 202° (SSW) 1,861 7.1 -14.1°
Reaches altitude 10° 18:57:01 10° 191° (S) 1,050 5.6 -14.5°
Enters shadow 18:58:57 31° 136° (SE) 486 3.2 -15.0°
